�N����,����,�~����,�C��,���x,�C��,����,���ϕ���,�ő�u�ԕ���,�ő厞����,���˗�,�I�_���x,�n�����x,�ő啗���N��,DTYPE
"21/07/11","00:10",0.0,24.6,89.0,1007.1,340.2,1.0,2.8,343.1,0.00,22.7,26.0,"00:07:04",1
"21/07/11","00:20",0.2,24.5,89.6,1006.9,335.8,1.3,2.5,348.6,0.00,22.7,25.8,"00:14:32",1
"21/07/11","00:30",0.0,24.4,90.2,1006.9,323.9,1.0,1.6,329.9,0.00,22.7,25.9,"00:20:16",1
"21/07/11","00:40",0.0,24.3,90.7,1006.9,328.7,1.1,2.0,352.9,0.00,22.7,26.1,"00:30:02",1
"21/07/11","00:50",0.0,24.2,91.1,1006.9,315.9,1.1,1.7,318.7,0.00,22.7,25.9,"00:40:08",1
"21/07/11","01:00",0.0,24.0,91.5,1006.7,325.3,0.7,1.4,326.8,0.00,22.6,25.9,"00:50:32",1
"21/07/11","01:10",0.0,24.0,91.8,1006.9,17.9,0.5,1.3,17.5,0.00,22.6,25.7,"01:00:56",1
"21/07/11","01:20",0.0,24.0,92.0,1007.1,341.2,0.8,1.2,340.6,0.00,22.7,25.8,"01:14:08",1
"21/07/11","01:30",0.0,23.9,92.3,1006.9,1.5,0.6,1.3,0.2,0.00,22.6,25.7,"01:24:48",1
"21/07/11","01:40",0.0,23.8,92.5,1006.9,332.0,0.6,1.3,344.9,0.00,22.6,25.5,"01:36:56",1
"21/07/11","01:50",0.0,23.6,92.8,1007.1,284.7,0.6,1.0,342.5,0.00,22.4,26.0,"01:48:56",1
"21/07/11","02:00",0.0,23.6,92.9,1007.4,309.7,0.7,1.1,341.1,0.00,22.4,25.7,"01:58:00",1
"21/07/11","02:10",0.0,23.6,93.1,1007.6,317.1,0.6,1.3,328.7,0.00,22.5,25.5,"02:08:56",1
"21/07/11","02:20",0.0,23.6,93.3,1007.6,338.1,0.8,1.9,346.6,0.00,22.5,25.5,"02:19:04",1
"21/07/11","02:30",0.0,23.7,93.5,1007.4,340.8,1.1,2.1,335.0,0.00,22.6,25.7,"02:22:00",1
"21/07/11","02:40",0.0,23.6,93.6,1007.1,321.9,1.0,2.1,349.8,0.00,22.5,25.7,"02:31:52",1
"21/07/11","02:50",0.0,23.5,93.7,1007.4,335.1,0.7,1.1,339.4,0.00,22.5,25.6,"02:42:56",1
"21/07/11","03:00",0.0,23.4,93.8,1007.1,174.9,0.1,0.5,207.0,0.00,22.4,25.6,"02:53:28",1
"21/07/11","03:10",0.0,23.5,93.9,1007.4,336.7,0.7,1.4,357.6,0.00,22.5,25.6,"03:02:56",1
"21/07/11","03:20",0.0,23.4,94.0,1006.9,319.5,0.6,1.0,309.9,0.00,22.4,25.3,"03:13:36",1
"21/07/11","03:30",0.0,23.4,94.2,1006.9,294.9,0.5,1.1,342.8,0.00,22.5,25.2,"03:20:48",1
"21/07/11","03:40",0.0,23.4,94.2,1006.9,312.9,0.3,0.9,359.6,0.00,22.5,25.5,"03:37:36",1
"21/07/11","03:50",0.0,23.3,94.2,1006.7,331.7,0.3,1.3,340.8,0.00,22.4,25.5,"03:41:28",1
"21/07/11","04:00",0.0,23.3,94.3,1007.4,245.1,0.5,0.9,247.9,0.00,22.4,25.4,"03:57:36",1
"21/07/11","04:10",0.0,23.3,94.5,1007.1,315.7,0.6,1.4,344.5,0.00,22.4,25.5,"04:09:04",1
"21/07/11","04:20",0.0,23.2,94.5,1007.1,317.7,0.5,1.2,330.0,0.00,22.3,25.7,"04:10:56",1
"21/07/11","04:30",0.2,23.3,94.6,1007.4,311.3,0.3,0.9,334.9,0.00,22.4,25.4,"04:27:20",1
"21/07/11","04:40",0.0,23.3,94.6,1006.9,289.5,0.5,0.8,288.3,0.00,22.4,25.5,"04:38:56",1
"21/07/11","04:50",0.0,23.2,94.7,1007.1,302.8,0.3,0.9,332.2,0.00,22.3,25.5,"04:49:12",1
"21/07/11","05:00",0.0,23.1,94.8,1007.4,287.6,0.6,0.9,339.2,0.00,22.3,25.4,"04:50:16",1
"21/07/11","05:10",0.0,23.2,94.8,1007.6,326.6,0.6,1.0,336.9,0.00,22.4,25.3,"05:04:08",1
"21/07/11","05:20",0.0,23.2,94.9,1007.6,340.6,0.5,1.0,338.8,0.00,22.4,25.3,"05:10:32",1
"21/07/11","05:30",0.0,23.2,94.9,1007.6,296.3,0.3,0.6,335.2,0.00,22.4,25.2,"05:25:12",1
"21/07/11","05:40",0.0,23.2,95.0,1008.1,292.8,0.6,0.8,325.4,0.00,22.4,25.2,"05:32:24",1
"21/07/11","05:50",0.0,23.2,95.1,1007.8,304.7,0.6,1.4,328.6,0.00,22.4,25.3,"05:44:40",1
"21/07/11","06:00",0.0,23.2,95.1,1007.8,269.7,0.1,0.5,282.0,0.00,22.4,25.2,"05:50:08",1
"21/07/11","06:10",0.0,23.3,95.1,1007.6,281.1,0.5,0.9,317.1,0.00,22.5,25.4,"06:07:28",1
"21/07/11","06:20",0.0,23.3,95.2,1007.8,306.2,0.6,1.0,334.4,0.00,22.5,25.2,"06:12:32",1
"21/07/11","06:30",0.0,23.4,95.3,1007.8,301.1,0.7,1.1,340.6,0.00,22.6,25.1,"06:20:48",1
"21/07/11","06:40",0.0,23.4,95.3,1007.8,331.2,0.7,1.6,353.9,0.01,22.6,25.3,"06:32:16",1
"21/07/11","06:50",0.0,23.6,95.4,1007.4,291.5,0.2,0.6,321.6,0.02,22.9,25.3,"06:40:08",1
"21/07/11","07:00",0.0,23.8,95.3,1007.8,322.2,0.6,1.0,333.4,0.03,23.0,25.2,"06:56:08",1
"21/07/11","07:10",0.0,23.9,95.4,1008.1,316.6,0.6,1.1,340.0,0.05,23.2,25.3,"07:01:20",1
"21/07/11","07:20",0.0,24.2,95.4,1007.8,292.6,0.6,1.1,326.2,0.07,23.5,25.2,"07:10:32",1
"21/07/11","07:30",0.0,24.5,95.3,1008.1,301.9,0.7,1.2,330.1,0.10,23.7,25.0,"07:22:08",1
"21/07/11","07:40",0.0,24.5,95.4,1008.1,286.4,0.8,1.6,256.2,0.12,23.8,25.1,"07:38:16",1
"21/07/11","07:50",0.0,25.3,95.3,1007.8,284.6,0.6,1.9,340.2,0.17,24.5,25.2,"07:46:40",1
"21/07/11","08:00",0.0,25.4,95.0,1007.4,325.5,0.7,1.3,317.2,0.08,24.6,25.1,"07:52:32",1
"21/07/11","08:10",0.0,25.2,95.0,1008.3,300.9,1.1,2.0,253.7,0.09,24.4,25.1,"08:09:52",1
"21/07/11","08:20",0.0,24.8,94.5,1008.1,267.9,1.1,2.4,253.2,0.11,23.9,25.1,"08:12:32",1
"21/07/11","08:30",0.0,24.6,93.8,1008.3,287.6,1.1,2.4,287.2,0.14,23.6,25.2,"08:23:20",1
"21/07/11","08:40",0.0,25.0,92.9,1008.6,277.3,1.0,2.5,239.6,0.20,23.8,25.2,"08:34:40",1
"21/07/11","08:50",0.0,25.6,91.9,1008.3,296.9,1.0,2.7,353.9,0.24,24.2,25.2,"08:47:04",1
"21/07/11","09:00",0.0,26.1,89.5,1008.1,335.1,1.6,3.5,342.3,0.28,24.3,25.3,"08:54:16",1
"21/07/11","09:10",0.0,26.7,86.5,1007.6,326.1,1.3,3.5,343.8,0.26,24.3,25.3,"09:07:28",1
"21/07/11","09:20",0.0,27.6,81.8,1006.9,298.2,1.1,2.8,353.9,0.36,24.2,25.1,"09:14:40",1
"21/07/11","09:30",0.0,28.0,77.6,1007.1,276.8,1.2,3.4,333.2,0.35,23.8,25.2,"09:20:40",1
"21/07/11","09:40",0.0,28.2,75.3,1006.9,261.7,1.3,3.3,235.1,0.32,23.5,25.5,"09:36:56",1
"21/07/11","09:50",0.0,28.8,74.0,1007.1,328.6,1.1,2.9,343.9,0.43,23.7,25.4,"09:45:36",1
"21/07/11","10:00",0.0,29.1,72.4,1007.4,269.0,1.3,3.7,243.4,0.43,23.7,25.6,"09:54:08",1
"21/07/11","10:10",0.0,29.7,71.9,1007.8,251.7,1.1,2.6,228.6,0.43,24.1,25.5,"10:07:44",1
"21/07/11","10:20",0.0,29.7,69.8,1007.6,243.3,1.5,4.4,226.7,0.50,23.6,25.7,"10:12:40",1
"21/07/11","10:30",0.0,30.1,68.6,1008.1,222.5,1.8,4.1,214.7,0.54,23.7,25.8,"10:22:00",1
"21/07/11","10:40",0.0,30.8,67.6,1007.8,230.0,1.1,2.8,224.0,0.56,24.1,25.7,"10:30:40",1
"21/07/11","10:50",0.0,31.0,66.2,1008.3,289.8,1.2,2.6,237.3,0.56,24.0,25.7,"10:49:12",1
"21/07/11","11:00",0.0,30.9,64.2,1008.3,248.2,1.0,3.1,237.9,0.52,23.4,25.8,"10:56:56",1
"21/07/11","11:10",0.0,31.0,65.3,1008.1,265.3,1.1,3.6,320.6,0.44,23.8,26.0,"11:05:52",1
"21/07/11","11:20",0.0,31.4,65.7,1008.6,355.9,1.3,3.2,343.8,0.57,24.2,25.8,"11:13:20",1
"21/07/11","11:30",0.0,31.3,64.6,1008.3,305.0,1.3,2.5,211.2,0.40,23.9,25.8,"11:28:48",1
"21/07/11","11:40",0.0,31.5,64.6,1008.3,223.2,0.8,3.3,346.0,0.46,24.1,26.2,"11:38:08",1
"21/07/11","11:50",0.0,32.0,63.5,1008.3,257.3,1.5,4.4,228.1,0.57,24.2,26.2,"11:49:52",1
"21/07/11","12:00",0.0,31.7,63.3,1008.3,213.3,2.2,4.3,195.5,0.60,23.9,26.1,"11:59:04",1
"21/07/11","12:10",0.0,31.8,63.7,1008.1,209.7,2.1,3.4,241.4,0.61,24.1,26.4,"12:02:56",1
"21/07/11","12:20",0.0,32.4,64.2,1007.8,205.8,1.6,3.1,182.6,0.61,24.8,26.5,"12:18:00",1
"21/07/11","12:30",0.0,32.5,61.3,1008.1,191.1,1.5,3.7,202.3,0.59,24.1,26.3,"12:29:52",1
"21/07/11","12:40",0.0,32.4,60.1,1008.1,173.5,1.1,2.5,202.9,0.44,23.7,26.5,"12:32:56",1
"21/07/11","12:50",0.0,32.5,61.3,1007.8,236.1,0.8,2.2,334.1,0.39,24.1,26.7,"12:49:04",1
"21/07/11","13:00",0.0,32.8,59.8,1007.8,319.8,1.1,2.5,8.2,0.48,24.0,26.6,"12:50:40",1
"21/07/11","13:10",0.0,33.1,60.0,1007.4,320.0,1.7,5.4,33.8,0.59,24.3,26.7,"13:06:56",1
"21/07/11","13:20",0.0,33.0,58.1,1007.6,277.7,1.2,3.4,239.4,0.51,23.7,26.9,"13:10:08",1
"21/07/11","13:30",0.0,31.9,60.0,1007.1,202.2,2.0,4.0,155.6,0.27,23.2,26.8,"13:26:16",1
"21/07/11","13:40",0.0,32.8,58.7,1007.4,217.6,1.2,2.9,225.3,0.51,23.7,26.7,"13:38:24",1
"21/07/11","13:50",0.0,32.6,54.9,1007.6,217.6,2.1,3.9,235.4,0.41,22.4,27.0,"13:40:56",1
"21/07/11","14:00",0.0,33.1,56.5,1007.1,260.7,0.6,1.9,206.2,0.34,23.3,26.9,"13:54:32",1
"21/07/11","14:10",0.0,33.9,54.2,1007.6,249.9,1.2,2.9,227.5,0.48,23.4,26.9,"14:03:20",1
"21/07/11","14:20",0.0,32.6,56.4,1007.6,214.3,1.1,2.7,222.7,0.19,22.8,26.9,"14:10:08",1
"21/07/11","14:30",0.0,32.4,57.0,1007.4,256.4,1.0,2.8,236.8,0.23,22.8,26.8,"14:26:48",1
"21/07/11","14:40",0.0,31.8,57.9,1006.9,307.6,1.1,2.6,305.8,0.12,22.5,26.9,"14:38:40",1
"21/07/11","14:50",0.0,31.3,59.3,1006.2,242.0,1.5,3.5,233.0,0.09,22.5,27.1,"14:45:52",1
"21/07/11","15:00",0.0,31.6,59.9,1006.7,259.4,0.8,2.1,281.9,0.15,22.9,27.0,"14:50:32",1
"21/07/11","15:10",0.0,33.0,57.5,1006.2,254.3,0.7,2.4,298.5,0.43,23.5,27.1,"15:05:28",1
"21/07/11","15:20",0.0,32.8,58.2,1006.4,233.7,1.5,3.9,143.2,0.30,23.5,27.1,"15:16:08",1
"21/07/11","15:30",0.0,32.6,56.2,1006.7,233.6,0.8,2.9,233.9,0.19,22.8,27.0,"15:20:08",1
"21/07/11","15:40",0.0,29.0,60.2,1006.9,342.0,2.8,10.1,48.4,0.03,20.5,27.2,"15:36:16",1
"21/07/11","15:50",0.0,27.1,67.4,1005.0,355.5,4.1,9.4,334.5,0.12,20.6,27.3,"15:40:56",1
"21/07/11","16:00",0.0,25.9,70.8,1004.1,327.1,3.7,8.3,341.6,0.09,20.2,27.3,"15:54:00",1
"21/07/11","16:10",0.0,25.8,73.2,1005.0,319.7,1.7,4.1,347.6,0.03,20.7,27.2,"16:01:12",1
"21/07/11","16:20",0.0,26.0,74.6,1005.7,26.1,0.7,1.8,349.5,0.02,21.2,27.2,"16:15:04",1
"21/07/11","16:30",0.0,25.9,74.4,1005.5,3.3,1.6,3.5,79.8,0.02,21.0,27.3,"16:21:52",1
"21/07/11","16:40",0.0,25.9,75.3,1005.7,322.6,1.6,3.1,332.7,0.02,21.2,27.3,"16:30:48",1
"21/07/11","16:50",0.0,25.4,76.7,1006.0,341.5,2.0,4.0,324.4,0.01,21.1,27.0,"16:48:16",1
"21/07/11","17:00",0.0,25.0,78.6,1005.7,326.4,2.6,3.9,338.9,0.00,21.1,27.1,"16:50:56",1
"21/07/11","17:10",0.0,24.9,80.2,1006.0,332.8,2.2,3.9,314.9,0.00,21.3,27.2,"17:00:40",1
"21/07/11","17:20",0.0,24.8,81.7,1005.7,340.0,2.5,5.0,348.5,0.00,21.5,27.0,"17:16:24",1
"21/07/11","17:30",0.0,24.7,82.9,1005.5,340.5,1.8,3.3,345.9,0.00,21.6,27.1,"17:20:40",1
"21/07/11","17:40",0.0,24.7,84.1,1005.7,342.4,2.1,3.9,350.4,0.00,21.9,26.9,"17:39:20",1
"21/07/11","17:50",0.0,24.5,85.0,1005.7,339.4,3.0,6.2,346.5,0.02,21.9,27.0,"17:45:28",1
"21/07/11","18:00",0.0,24.5,85.0,1006.0,351.6,1.6,3.3,9.9,0.04,21.9,26.9,"17:57:52",1
"21/07/11","18:10",0.0,24.7,85.1,1006.0,353.1,1.6,2.8,331.2,0.02,22.1,27.0,"18:08:16",1
"21/07/11","18:20",0.0,24.8,84.9,1006.0,332.5,2.5,3.7,322.6,0.02,22.1,26.7,"18:15:12",1
"21/07/11","18:30",0.0,25.1,83.8,1006.0,338.1,1.8,3.7,327.3,0.03,22.2,26.7,"18:21:28",1
"21/07/11","18:40",0.0,25.3,82.5,1006.0,341.2,2.0,3.9,348.7,0.05,22.1,26.7,"18:37:52",1
"21/07/11","18:50",0.0,25.2,81.8,1006.0,339.0,2.2,4.4,326.9,0.02,21.9,26.7,"18:49:36",1
"21/07/11","19:00",0.0,25.1,81.7,1006.2,339.4,2.1,3.9,333.8,0.01,21.8,26.7,"18:53:28",1
"21/07/11","19:10",0.0,25.1,82.2,1006.2,334.5,2.5,4.4,309.6,0.00,21.9,26.8,"19:07:44",1
"21/07/11","19:20",0.0,24.9,83.0,1006.4,342.1,2.0,4.2,339.7,0.00,21.9,26.7,"19:12:00",1
"21/07/11","19:30",0.0,24.8,83.9,1006.2,340.2,1.3,2.9,340.5,0.00,21.9,26.7,"19:21:12",1
"21/07/11","19:40",0.0,24.6,84.7,1006.9,330.3,1.5,2.7,342.0,0.00,21.9,26.7,"19:39:04",1
"21/07/11","19:50",0.0,24.6,85.5,1006.9,335.6,2.0,3.4,342.2,0.00,22.0,26.6,"19:48:16",1
"21/07/11","20:00",0.0,24.4,86.2,1006.7,342.4,1.3,2.4,347.2,0.00,22.0,26.6,"19:56:56",1
"21/07/11","20:10",0.0,24.2,86.7,1007.1,329.2,0.7,1.9,332.2,0.00,21.9,26.3,"20:01:44",1
"21/07/11","20:20",0.0,24.2,87.2,1007.4,345.7,1.2,2.1,339.7,0.00,22.0,26.5,"20:10:48",1
"21/07/11","20:30",0.0,24.2,87.8,1007.4,334.2,1.6,2.9,338.1,0.00,22.1,26.5,"20:28:24",1
"21/07/11","20:40",0.0,24.2,88.1,1007.4,337.7,1.8,3.3,342.4,0.00,22.1,26.4,"20:38:40",1
"21/07/11","20:50",0.0,24.3,88.3,1007.1,341.4,1.6,2.9,319.5,0.00,22.3,26.3,"20:40:56",1
"21/07/11","21:00",0.0,24.2,88.6,1007.4,342.5,1.2,2.7,329.5,0.00,22.2,26.3,"20:59:20",1
"21/07/11","21:10",0.0,24.1,88.8,1008.1,339.5,1.2,2.8,341.0,0.00,22.2,26.5,"21:00:48",1
"21/07/11","21:20",0.0,24.0,89.0,1008.3,331.4,1.5,2.7,340.1,0.00,22.1,26.3,"21:16:48",1
"21/07/11","21:30",0.0,23.9,89.2,1008.1,345.7,1.3,2.1,347.1,0.00,22.1,26.2,"21:28:40",1
"21/07/11","21:40",0.0,23.9,89.5,1008.3,341.6,1.3,2.8,346.1,0.00,22.1,26.2,"21:37:52",1
"21/07/11","21:50",0.0,23.9,89.8,1008.3,328.0,2.0,2.7,329.2,0.00,22.2,26.1,"21:40:56",1
"21/07/11","22:00",0.0,23.9,89.9,1007.8,331.9,1.5,2.7,325.1,0.00,22.2,26.3,"21:59:20",1
"21/07/11","22:10",0.0,23.9,90.0,1008.1,335.5,1.6,3.3,337.5,0.00,22.2,26.1,"22:05:12",1
"21/07/11","22:20",0.0,23.8,90.2,1008.3,331.9,1.3,2.1,312.8,0.00,22.1,26.1,"22:12:16",1
"21/07/11","22:30",0.0,23.7,90.4,1008.3,326.5,1.5,2.5,306.7,0.00,22.1,26.1,"22:29:44",1
"21/07/11","22:40",0.0,23.6,90.6,1008.3,333.0,1.8,2.8,333.4,0.00,22.0,25.8,"22:38:16",1
"21/07/11","22:50",0.0,23.5,90.7,1007.6,333.3,1.7,2.7,331.4,0.00,21.9,25.8,"22:48:32",1
"21/07/11","23:00",0.0,23.4,90.9,1008.1,314.4,1.5,3.1,326.6,0.00,21.9,26.1,"22:55:44",1
"21/07/11","23:10",0.0,23.2,91.0,1008.1,301.6,1.2,2.0,334.1,0.00,21.7,26.0,"23:00:08",1
"21/07/11","23:20",0.0,23.1,91.2,1008.3,305.5,1.1,1.7,340.6,0.00,21.6,25.9,"23:14:32",1
"21/07/11","23:30",0.0,23.0,91.3,1008.6,294.0,1.0,1.4,316.3,0.00,21.5,26.1,"23:24:32",1
"21/07/11","23:40",0.0,23.0,91.5,1008.6,306.0,1.1,1.8,276.2,0.00,21.6,25.8,"23:34:32",1
"21/07/11","23:50",0.0,23.0,91.6,1008.6,308.5,1.2,1.7,317.3,0.00,21.6,25.8,"23:44:24",1
"21/07/11","24:00",0.0,22.9,91.7,1008.3,298.5,1.0,1.6,301.6,0.00,21.5,25.6,"23:51:04",1
